Погода в Дубовом Гае

Россия / Саратовская область     52°31′01″N   47°36′17″E
темп.,
°C
ветер,
м/с
пор.,
м/с
влажн.,
%
обл.,
%
осадки,
мм/ч
давл.,
гПа
погр.,
м
17 мая, вт
вт1701:00+8з4109467 0.0 1004282
04:00+8з49906 0.0 1004330
07:00+8з49850 0.0 1004401
10:00+12з68635 0.2 10041400
13:00+14зюз794984 1.1 10042242
16:00+14зюз794795 1.3 10032184
19:00+12зюз486428 0.6 1003706
22:00+8юз3581100 0.9 100398
18 мая, ср
ср1801:00+8юз3789100 0.4 1003836
04:00+7з6889100 1.1 1002942
07:00+6з4691100 2.5 1003854
10:00+8зсз478591 2.9 1004888
13:00+12зсз476195 0.9 10051646
16:00+13зсз575497 1.2 10061855
19:00+12з476646 0.0 1008668
22:00+9сз2382100 0.1 101092
19 мая, чт
чт1901:00+7сз239097 0.0 101081
04:00+7з1288100 0.0 101154
07:00+8зсз368144 0.0 1012442
10:00+12зсз465740 0.0 10121453
13:00+12зсз575597 0.3 10121565
16:00+14з574692 0.3 10122116
19:00+12зсз365895 0.0 1011353
22:00+8с278298 0.1 1012297
20 мая, пт
пт2001:00+4сз24935 0.0 101295
04:00+3сз37935 0.0 1013177
07:00+6сз510740 0.0 1014535
10:00+10сз685046 0.0 10131666
13:00+10зсз695597 0.1 10131874
16:00+10ссз81147100 0.6 10132316
19:00+9ссз69575 0.0 10151545
22:00+4зсз22720 0.0 101623
21 мая, сб
сб2101:00+3зсз22791 0.0 101625
04:00+2з228297 0.0 101514
07:00+5з2268100 0.0 1015162
10:00+10юз2349100 0.0 10131040
13:00+12ююз2341100 0.0 10111784
16:00+11ююз5457100 0.0 10091335
19:00+10ююв3472100 0.1 1008778
22:00+6ююз119199 0.3 100710